Kuchera_Ratio
0.0 0.0 0.0 0.0 0.0 0.0 0.0 0.0 0.0 1.5 0.0 0.0 0.0 0.0 0.0 0.0 0.0 0.0 0.0 0.0 0.0 0.0 0.0 0.0 0.0 0.0 0.0 0.0 0.0 0.0 0.0 0.0 0.0 0.0 0.0 0.0 0.0 0.0
0.0 0.0 0.0 0.0 0.0 0.0 0.0 0.0 0.0 0.0 4.5 0.0 0.0 0.0 0.0 0.0 0.0 0.0 0.0 0.0 0.0 1.1 1.3 0.3 0.0 0.0 0.0 0.0 0.0 0.0 0.0 0.0 0.0 0.0 0.0 0.0 0.0 0.0
0.0 0.0 0.0 0.0 0.0 0.0 0.0 0.0 0.0 0.0 0.0 0.0 0.0 0.0 0.0 0.0 0.0 0.0 0.0 0.0 0.0 0.0 1.7 1.5 0.7 0.1 0.0 0.0 0.0 0.0 0.0 0.0 0.0 0.0 0.0 0.0 0.0 0.0
0.0 0.0 0.0 0.0 0.0 0.0 0.0 0.0 0.0 0.0 0.0 0.0 0.0 0.0 0.0 0.0 0.0 0.0 0.0 0.0 0.0 0.0 1.9 1.9 1.3 1.5 1.3 0.9 0.5 0.0 0.0 0.0 0.0 0.0 0.0 0.0 0.0 0.0
0.0 0.0 0.0 0.0 0.0 0.0 0.0 0.0 0.0 0.0 0.0 0.0 0.0 0.0 0.0 0.0 0.0 0.0 0.0 0.0 0.0 0.5 1.7 2.3 2.3 2.3 2.1 1.5 1.1 0.7 0.5 0.3 0.1 0.0 0.0 0.0 0.0 0.0
0.0 0.0 0.0 0.0 0.0 0.0 0.0 0.0 0.0 0.0 0.0 0.0 0.0 0.0 0.0 0.0 0.5 3.1 3.1 0.0 0.5 0.0 0.0 2.1 3.1 2.3 2.3 2.1 2.5 2.1 1.5 1.1 0.9 0.3 0.3 0.5 0.3 0.0
0.0 0.0 0.0 0.0 0.0 0.0 0.0 0.0 0.0 0.0 0.0 0.3 1.5 1.5 2.1 2.1 3.9 3.1 5.1 3.1 1.5 0.0 0.3 0.0 0.0 0.0 0.0 0.0 0.0 1.3 1.7 2.1 1.7 0.9 0.5 0.5 0.7 0.1
0.0 0.0 0.0 0.0 0.0 1.7 1.7 2.5 0.0 0.0 1.1 1.5 2.1 4.1 3.3 3.1 3.7 5.3 6.5 8.1 10.1 0.0 2.7 3.7 0.0 0.3 0.0 0.0 0.1 2.1 2.7 2.1 1.5 1.1 0.3 0.5 0.7 0.7
0.0 0.0 0.0 0.0 0.0 0.0 0.5 3.7 3.1 4.9 6.5 1.1 5.5 3.9 5.9 3.7 4.5 6.7 6.7 7.1 7.9 2.5 4.3 7.7 1.9 3.1 0.0 0.0 0.7 2.1 3.1 3.1 2.3 1.3 0.5 0.9 1.5 1.7
0.0 0.0 0.0 0.0 0.0 0.0 0.0 0.0 0.0 0.0 0.7 2.1 1.7 1.7 1.3 1.9 3.5 5.1 6.9 7.3 5.5 2.7 1.9 12.3 3.9 4.7 0.5 0.0 0.0 2.3 2.9 2.1 1.7 0.9 1.3 0.9 1.5 2.1
0.0 0.0 0.0 0.0 0.0 2.9 2.5 4.1 2.5 1.5 1.9 4.3 4.9 5.3 7.3 8.5 6.7 5.7 9.5 10.7 12.3 7.3 2.9 8.7 5.9 6.7 3.3 1.7 0.0 0.7 1.3 1.7 2.1 2.3 2.3 1.9 1.9 2.1
0.0 0.0 2.5 0.1 2.7 5.7 5.3 5.5 8.3 3.3 1.1 2.9 2.9 3.9 5.1 3.9 7.7 5.9 6.3 12.2 11.7 12.2 2.1 9.7 7.7 7.7 11.3 1.3 0.0 0.0 0.0 0.9 2.1 1.7 2.3 2.5 2.5 3.1
0.0 0.0 0.0 4.7 4.5 5.7 5.3 4.9 6.7 1.7 4.5 4.1 3.7 3.5 3.7 3.9 3.5 2.9 3.7 7.5 11.1 10.5 3.7 7.7 9.5 9.1 11.3 10.1 4.3 1.5 0.0 0.3 0.0 0.0 1.1 2.3 2.3 3.3
2.9 0.1 0.0 2.3 6.1 6.5 5.9 5.3 7.1 7.9 6.3 6.9 7.9 8.3 7.9 6.7 4.1 3.1 3.5 4.7 4.1 7.3 5.3 8.5 12.1 10.5 12.1 12.9 11.3 3.1 2.5 0.9 0.7 2.9 1.3 2.3 2.5 3.1
2.1 2.5 3.9 3.9 5.7 7.7 7.9 6.7 7.3 8.1 8.9 10.7 9.7 8.1 6.1 3.7 3.9 5.5 5.3 5.1 5.7 6.3 5.9 6.9 8.9 9.7 12.1 13.4 12.3 8.5 7.5 3.3 1.7 3.7 4.3 5.1 3.5 4.9
5.3 3.1 4.7 6.9 7.1 7.5 8.1 7.7 6.7 6.5 7.7 8.7 7.9 5.5 4.9 7.9 9.3 6.5 9.1 8.9 11.1 10.1 7.1 7.1 7.7 8.3 11.1 9.1 8.3 9.1 5.7 10.7 4.1 5.7 5.9 3.5 2.5 3.3
7.1 6.3 6.3 6.3 6.3 6.9 8.1 7.9 6.9 6.9 9.1 8.5 8.9 9.1 9.7 9.3 9.9 7.7 9.7 10.3 12.7 12.5 11.5 7.7 6.5 6.9 7.5 9.7 11.9 7.1 7.9 7.1 7.1 7.9 6.5 6.1 4.3 3.5
8.5 8.5 8.1 7.5 7.9 8.5 8.9 7.9 8.3 8.7 8.1 8.7 9.5 10.3 10.9 11.3 10.7 10.3 10.7 12.2 12.9 12.4 12.2 9.9 9.7 10.9 8.3 6.9 8.3 9.5 8.5 9.1 7.1 4.7 5.5 9.3 7.9 3.7
9.3 8.3 8.3 7.9 7.7 8.9 9.1 9.1 8.5 7.1 7.9 9.9 9.9 10.5 10.9 11.3 12.3 12.1 12.2 12.6 13.0 12.5 11.7 10.5 11.7 12.8 13.9 14.7 7.5 9.3 10.9 9.1 8.3 6.9 6.7 7.5 8.5 6.5
14.7 15.7 11.1 7.5 8.1 7.9 7.1 8.3 8.5 7.9 9.9 10.7 10.3 10.3 11.3 11.5 12.4 12.7 12.5 13.2 13.2 12.9 12.7 10.5 11.5 12.4 13.9 14.5 14.4 10.7 9.7 11.1 11.1 11.3 9.1 6.5 4.7 9.3
16.6 16.0 15.6 14.7 12.5 7.9 7.9 8.5 9.1 9.5 10.5 11.1 10.9 11.3 12.1 12.1 12.5 12.1 12.3 14.4 15.2 13.6 13.8 12.8 10.7 13.6 11.3 11.1 14.2 12.1 9.5 11.5 10.7 12.1 11.5 10.3 9.9 8.1
17.9 18.0 17.3 16.3 15.4 14.7 9.7 8.9 9.5 10.7 11.1 11.3 11.3 11.5 11.9 12.3 12.3 12.8 12.9 13.3 13.9 13.6 13.0 11.9 10.7 10.5 10.9 12.3 12.7 12.9 11.1 9.1 9.5 11.3 11.7 12.4 11.7 12.8
19.0 18.6 18.9 18.3 17.1 16.1 15.3 14.4 9.9 10.9 11.1 11.5 11.7 11.7 12.4 13.1 12.1 12.1 12.5 13.4 13.3 13.9 13.6 13.6 12.4 11.5 12.4 12.6 13.5 12.6 13.4 12.4 10.3 9.5 8.7 12.1 11.3 11.5